Location: Brno
(49.2000°N, 16.6330°E)
Time: 21:14:34
(UTC+02:00)

Cosmos 1603 - Visible Passes

Search period start: 29 May 2016 00:00
Search period end: 08 June 2016 00:00
Orbit: 833 x 858 km, 71.0° (Epoch: 28 May)

Date Brightness Start Highest point End Pass type
(mag) Time Alt. Az. Time Alt. Az. Time Alt. Az.
29 May 6.0 23:00:35 10° W 23:05:14 26° NW 23:09:55 10° NNE visible
30 May 6.0 22:46:36 10° WSW 22:51:18 27° NW 22:56:00 10° NNE visible
31 May 6.7 04:07:48 10° N 04:11:39 18° NE 04:15:29 10° E visible
31 May 6.0 22:32:39 10° WSW 22:37:22 27° NW 22:42:07 10° NNE visible
01 Jun 6.8 03:53:55 10° N 03:57:42 18° NE 04:01:29 10° E visible
01 Jun 6.0 22:18:40 10° WSW 22:23:26 28° NW 22:28:14 10° NNE visible
02 Jun 6.8 03:40:01 10° N 03:43:46 18° NE 03:47:30 10° ENE visible
02 Jun 6.0 22:04:43 10° WSW 22:09:30 28° NW 22:14:20 10° NNE visible
03 Jun 6.9 03:26:09 10° N 03:29:50 17° NE 03:33:30 10° ENE visible
03 Jun 6.0 21:50:45 10° WSW 21:55:34 29° NW 22:00:26 10° NNE visible
04 Jun 6.9 03:12:16 10° N 03:15:53 17° NE 03:19:30 10° ENE visible
04 Jun 6.0 21:36:47 10° WSW 21:41:39 29° NW 21:46:32 10° NNE visible
05 Jun 6.8 02:58:22 10° N 03:01:56 17° NE 03:05:30 10° ENE visible
05 Jun 7.5 23:13:27 10° NNW 23:13:52 10° NNW 23:14:16 10° NNW visible
06 Jun 6.8 02:44:29 10° N 02:48:00 16° NE 02:51:30 10° ENE visible
06 Jun 7.4 22:59:11 10° NNW 22:59:55 10° NNW 23:00:39 10° NNW visible
07 Jun 6.7 02:30:37 10° N 02:34:03 16° NE 02:37:30 10° ENE visible
07 Jun 7.3 22:45:01 10° NNW 22:45:58 10° NNW 22:46:54 10° NNW visible
